| time (UTC) | temp C | wind direction | speed KPH | gust KPH | rain 1hr cm | rain 24hr cm | rain mn cm | humidity % | barometer mb |
| 20260504045037 | -17 | 0.0 | 0.0 | 0.00 | 0.00 | 0.00 | |||
| 20260504044036 | -17 | 0.0 | 0.0 | 0.00 | 0.00 | 0.00 | |||
| 20260504043537 | -17 | 0.0 | 0.0 | 0.00 | 0.00 | 0.00 | |||
| 20260504042537 | -17 | 0.0 | 0.0 | 0.00 | 0.00 | 0.00 | |||
| 20260504041535 | -17 | 0.0 | 0.0 | 0.00 | 0.00 | 0.00 | |||
| 20260504040536 | -17 | 0.0 | 0.0 | 0.00 | 0.00 | 0.00 | |||
| 20260504035536 | -17 | 0.0 | 0.0 | 0.00 | 0.00 | 0.00 | |||
| 20260504034535 | -17 | 0.0 | 0.0 | 0.00 | 0.00 | 0.00 | |||
| 20260504033535 | -17 | 0.0 | 0.0 | 0.00 | 0.00 | 0.00 | |||
| 20260504032536 | -17 | 0.0 | 0.0 | 0.00 | 0.00 | 0.00 | |||
| 20260504031537 | -17 | 0.0 | 0.0 | 0.00 | 0.00 | 0.00 | |||
| 20260504030535 | -17 | 0.0 | 0.0 | 0.00 | 0.00 | 0.00 | |||
| 20260504025537 | -17 | 0.0 | 0.0 | 0.00 | 0.00 | 0.00 | |||
| 20260504024536 | -17 | 0.0 | 0.0 | 0.00 | 0.00 | 0.00 | |||
| 20260504023538 | -17 | 0.0 | 0.0 | 0.00 | 0.00 | 0.00 | |||
| 20260504022558 | -17 | 0.0 | 0.0 | 0.00 | 0.00 | 0.00 | |||
| 20260504021536 | -17 | 0.0 | 0.0 | 0.00 | 0.00 | 0.00 | |||
| 20260504020538 | -17 | 0.0 | 0.0 | 0.00 | 0.00 | 0.00 | |||
| 20260504015537 | -17 | 0.0 | 0.0 | 0.00 | 0.00 | 0.00 | |||
| 20260504014536 | -17 | 0.0 | 0.0 | 0.00 | 0.00 | 0.00 | |||
| 20260504013539 | -17 | 0.0 | 0.0 | 0.00 | 0.00 | 0.00 | |||
| 20260504012537 | -17 | 0.0 | 0.0 | 0.00 | 0.00 | 0.00 | |||
| 20260504011557 | -17 | 0.0 | 0.0 | 0.00 | 0.00 | 0.00 | |||
| 20260504011024 | 18 | 0.0 | 0.0 | 0.00 | 0.00 | 0.00 | 31 | ||
| 20260504010039 | 18 | 0 | 9.7 | 16.1 | 0.00 | 0.00 | 0.00 | 31 | |
| 20260504005100 | 18 | 0 | 12.9 | 17.7 | 0.00 | 0.00 | 0.00 | 33 | |
| 20260504004042 | 19 | 0 | 12.9 | 17.7 | 0.00 | 0.00 | 0.00 | 33 | |
| 20260504003038 | 19 | 0 | 9.7 | 16.1 | 0.00 | 0.00 | 0.00 | 32 | |
| 20260504002038 | 19 | 0 | 11.3 | 17.7 | 0.00 | 0.00 | 0.00 | 32 | |
| 20260504001038 | 20 | 0 | 8.0 | 17.7 | 0.00 | 0.00 | 0.00 | 40 | |
| 20260504000041 | 20 | 0 | 9.7 | 17.7 | 0.00 | 0.00 | 0.00 | 40 | |
| 20260503235118 | 20 | 0 | 11.3 | 20.9 | 0.00 | 0.00 | 0.00 | 40 | |
| 20260503234040 | 20 | 0 | 9.7 | 19.3 | 0.00 | 0.00 | 0.00 | 40 | |
| 20260503233038 | 20 | 0 | 8.0 | 17.7 | 0.00 | 0.00 | 0.00 | 40 | |
| 20260503232058 | 20 | 0 | 9.7 | 17.7 | 0.00 | 0.00 | 0.00 | 38 | |
| 20260503231101 | 21 | 0 | 8.0 | 17.7 | 0.00 | 0.00 | 0.00 | 36 | |
| 20260503230120 | 21 | 0 | 9.7 | 17.7 | 0.00 | 0.00 | 0.00 | 36 | |
| 20260503225037 | 21 | 0 | 8.0 | 20.9 | 0.00 | 0.00 | 0.00 | 35 | |
| 20260503224041 | 21 | 0 | 3.2 | 12.9 | 0.00 | 0.00 | 0.00 | 33 | |
| 20260503223040 | 21 | 0 | 6.4 | 16.1 | 0.00 | 0.00 | 0.00 | 32 | |
| 20260503222039 | 21 | 0 | 8.0 | 19.3 | 0.00 | 0.00 | 0.00 | 32 | |
| 20260503221038 | 21 | 0 | 6.4 | 14.5 | 0.00 | 0.00 | 0.00 | 28 | |
| 20260503220040 | 21 | 0 | 4.8 | 14.5 | 0.00 | 0.00 | 0.00 | 27 | |
| 20260503215038 | 21 | 0 | 4.8 | 14.5 | 0.00 | 0.00 | 0.00 | 28 | |
| 20260503214041 | 21 | 0 | 3.2 | 14.5 | 0.00 | 0.00 | 0.00 | 28 | |
| 20260503213039 | 20 | 0 | 3.2 | 14.5 | 0.00 | 0.00 | 0.00 | 30 | |
| 20260503212042 | 20 | 0 | 4.8 | 16.1 | 0.00 | 0.00 | 0.00 | 31 | |
| 20260503211041 | 20 | 0 | 4.8 | 16.1 | 0.00 | 0.00 | 0.00 | 32 | |
| 20260503210041 | 20 | 0 | 1.6 | 9.7 | 0.00 | 0.00 | 0.00 | 30 | |
| 20260503205040 | 20 | 0 | 6.4 | 17.7 | 0.00 | 0.00 | 0.00 | 31 | |
| 20260503204038 | 21 | 0 | 6.4 | 14.5 | 0.00 | 0.00 | 0.00 | 29 | |
| 20260503203100 | 21 | 0 | 3.2 | 12.9 | 0.00 | 0.00 | 0.00 | 27 | |
| 20260503202040 | 21 | 0 | 4.8 | 12.9 | 0.00 | 0.00 | 0.00 | 27 | |
| 20260503201041 | 21 | 0 | 4.8 | 14.5 | 0.00 | 0.00 | 0.00 | 29 | |
| 20260503200039 | 22 | 0 | 6.4 | 19.3 | 0.00 | 0.00 | 0.00 | 28 | |
| 20260503195039 | 22 | 0 | 4.8 | 16.1 | 0.00 | 0.00 | 0.00 | 29 | |
| 20260503194058 | 22 | 0 | 6.4 | 16.1 | 0.00 | 0.00 | 0.00 | 28 | |
| 20260503193102 | 21 | 0 | 4.8 | 16.1 | 0.00 | 0.00 | 0.00 | 29 | |
| 20260503192119 | 21 | 0 | 6.4 | 17.7 | 0.00 | 0.00 | 0.00 | 29 | |
| 20260503191058 | 21 | 0 | 4.8 | 17.7 | 0.00 | 0.00 | 0.00 | 30 | |
| 20260503190038 | 21 | 0 | 4.8 | 12.9 | 0.00 | 0.00 | 0.00 | 31 | |
| 20260503185102 | 20 | 0 | 3.2 | 11.3 | 0.00 | 0.00 | 0.00 | 32 | |
| 20260503184040 | 20 | 0 | 3.2 | 16.1 | 0.00 | 0.00 | 0.00 | 31 | |
| 20260503183040 | 21 | 0 | 3.2 | 12.9 | 0.00 | 0.00 | 0.00 | 31 | |
| 20260503182040 | 20 | 0 | 3.2 | 14.5 | 0.00 | 0.00 | 0.00 | 32 | |
| 20260503181102 | 20 | 0 | 4.8 | 12.9 | 0.00 | 0.00 | 0.00 | 30 | |
| 20260503180038 | 20 | 0 | 3.2 | 12.9 | 0.00 | 0.00 | 0.00 | 31 | |
| 20260503175039 | 20 | 0.0 | 6.4 | 0.00 | 0.00 | 0.00 | 32 | ||
| 20260503174041 | 19 | 0 | 1.6 | 9.7 | 0.00 | 0.00 | 0.00 | 32 | |
| 20260503173038 | 18 | 0 | 3.2 | 16.1 | 0.00 | 0.00 | 0.00 | 33 | |
| 20260503172042 | 18 | 0 | 1.6 | 9.7 | 0.00 | 0.00 | 0.00 | 33 | |
| 20260503171038 | 18 | 0 | 1.6 | 9.7 | 0.00 | 0.00 | 0.00 | 36 | |
| 20260503150537 | -17 | 0.0 | 0.0 | 0.00 | 0.00 | 0.00 | |||
| 20260503131036 | -17 | 0.0 | 0.0 | 0.00 | 0.00 | 0.00 | |||
| 20260503081036 | -17 | 0.0 | 0.0 | 0.00 | 0.00 | 0.00 | |||
| 20260503080117 | -17 | 0.0 | 0.0 | 0.00 | 0.00 | 0.00 | |||
| 20260503072036 | -17 | 0.0 | 0.0 | 0.00 | 0.00 | 0.00 | |||
| 20260503071037 | -17 | 0.0 | 0.0 | 0.00 | 0.00 | 0.00 |